EGUB

RAF Benson

Airport
ICAO code
EGUB
Summary
ICAO Region
EUR
ICAO Territory
Location

Oxfordshire, United Kingdom,

Elevation
226 ft
Coordinates
51° 36' 59" N , 1° 5' 45" W
KCC
Airport WX
Fog
Metar
Observation
EGUB 272020Z AUTO 03004KT 9999 BKN034/// 01/M01 Q1032
Station
Benson
Date/Time
2023-01-27 20:20:00
Wind direction
30°
Wind speed
04 kts
Lowest cloud amount
broken clouds
Temperature
1°C
Dew point
-1°C
Humidity
86%
QNH
1032 hPa
Weather condition
n/a

Description

Military airbase South East of Oxford hosting support helicopters and basic training aircraft.

Climatology

Temperate Marine climate/Oceanic climate (Köppen climate classification Cfb). Moderately cool summer and comparatively warm winter with a temperature range of only 14°C. Prevailing south-westerly winds from the Atlantic Ocean.

Runways

Designator Length Width Surface Rops
6/24 1458 30 ASP No/No
1/19 1823 46 ASP No/No

Airport map

Aerial View

SKYbrary Partners:

Safety knowledge contributed by: